Terug naar catalogus

OAO 2

ActiefWetenschapLEO
NORAD 3597·PAYLOAD·🇺🇸 United States

Gelanceerd Dec 7, 1968 vanaf Cape Canaveral Space Force Station

Loading…

Volgende Passages (komende 24 uur)

TLE

VersSource: Space-Track

Epoch: Sep 14, 2026, 12:39 UTC

1 03597U 68110A   26257.52776748  .00000140  00000-0  42688-4 0  9995
2 03597  34.9936 290.8240 0006043 272.4203  87.5796 14.47379838 46475

Volg OAO 2 in realtime met AllMySat

Download on the App Store